STARLINK-35393, 65827

Orbit data source: Space-Track

STARLINK-35393, 65827 is a payload satellite owned by SpaceX/Seattle (US) in LEO that was launched on Mon, 29 Sep 2025 UTC via an FALCON 9 launch vehicle from the Air Force Western Test Range (AFWTR). Payload-class satellites include a variety of spacecraft equipped with specific instruments for various scientific and technological missions. These include communications satellites like Starlink; space stations such as the ISS; scientific satellites like the Hubble; Earth observation satellites from companies like Planet Labs, Umbra, and HawkEye 360; GPS; miniature CubeSats for education and research; and military/defense satellites.

Loading next visibility...
Identifier
65827, 2025-221E
Orbit
LEO
Country
Flag of USUS
Related business
Manufacturer
SpaceX/Seattle
Mission
Operational spacecraft
Bus & Motor
STARLINK V2MO, Unknown motor
Mass
575 kg wet, ~530 kg dry
Launch date (UTC)
2025-09-29 (3 weeks ago)
Launch vehicle
FALCON 9
Launch site
Air Force Western Test Range (AFWTR)
Object type
Payload
Rocket body
Debris
Shape & HBR
Unknown shape, 17.7 m
Radar Cross Section
RCS unknown

Expand to show TLE details & history
Last TLE update: 7 hours ago

TLE from 7 hours ago
0 STARLINK-35393
1 65827U 25221E   25290.83335647 -.01691627  00000-0 -25834-1 0  9994
2 65827  53.1597  34.6383 0000996  61.6742 273.0893 15.56849729  4212
Epoch: 2025-10-17T20:00Z
TLE epoch observation values (Epoch: 2025-10-17T20:00:01.999Z)
Latitude
-20.14427°
Longitude
52.19689°
Altitude
402.354 km
Speed
7.669 km/s
True Right ascension
01h 15m 06s
True Declination
-20° 01' 39"
Sunlit
Object was in full shadow at epoch
Visualization orbit readout
Latitude
Unknown
Longitude
Unknown
Altitude
Unknown
Speed
Unknown
Apparent Right ascension
Unknown
Apparent Declination
Unknown
Sunlit
N/A
Visualization observer readout
Local Sidereal Time
21:26:38
Azimuth
Unknown
Elevation
Unknown
Doppler factor
Unknown
Orbital elements
Apogee altitude
397.715 km
Perigee altitude
396.366 km
Semi-major axis
6,775.177 km
Eccentricity
0.0001
Inclination
53.1597°
RAAN
34.6383°
Arg. of periapsis
61.6742°
True anomaly
273.0779°
Mean anomaly
273.0893°
Eccentric anomaly
273.0836°
Mean motion
3.8919 °/min
Orbital period
92.5 mins
BSTAR
-0.025834
Loading maneuver chart data...
Computing Atmospheric mass density...
Loading historical data...
Loading historical data...
Loading historical data...
Loading historical data...
Loading historical data...
Loading historical data...
Loading historical data...

Documentation

Showing up to 5 results
|